Tracking 20370 objects as of 20-Feb-2020
HD Live streaming from Space Station
objects crossing your sky now
Track the group of recently launched Starlink satellites

COSMOS 2526

Track COSMOS 2526 now!


NORAD ID: 43432
Int'l Code: 2018-037A
Perigee: 35,791.9 km
Apogee: 35,796.1 km
Inclination: 0.0 °
Period: 1,436.1 minutes
Semi major axis: 42164 km
RCS: Unknown
Launch date: April 18, 2018
Source: Commonwealth of Independent States (former USSR) (CIS)
Launch site: TYURATAM MISSILE AND SPACE COMPLEX (TTMTR)
aabbcc
Your satellite tracking list
Your tracking list is empty




NASA's NSSDC Master Catalog

Two Line Element Set (TLE):
1 43432U 18037A   20050.85002994 -.00000363 +00000-0 +00000-0 0  9992
2 43432 000.0246 116.1733 0000491 237.0269 230.0956 01.00270839006826
Source of the keplerian elements: AFSPC